Weather History for Manistique, MI

Change the Weather History Date:

Sunday, December 23, 2012

  Actual Average Record
Temperature  
Mean Temperature 22 °F -  
Max Temperature 26 °F 27 °F 46 °F (1957)
Min Temperature 17 °F 15 °F -15 °F (1983)
Degree Days  
Heating Degree Days 44    
Moisture  
Dew Point 17 °F    
Average Humidity 81    
Maximum Humidity 86    
Minimum Humidity 74    
Precipitation  
Precipitation 0.00 in - - ()
Sea Level Pressure  
Sea Level Pressure 29.94 in    
Wind  
Wind Speed 8 mph (WNW)    
Max Wind Speed 16 mph    
Max Gust Speed 25 mph    
Visibility 8 miles    
Events Snow    
Averages and records for this station are not official NWS values.
T = Trace of Precipitation, MM = Missing Value Source: NWS Daily Summary

Daily Weather History Graph

Daily Weather History Graph

Search for Another Location

Airport:

Trip Planner

Search our weather history database for the weather conditions in past years. The results will help you decide how hot, cold, wet, or windy it might be!

Date:

Astronomy

Dec. 23, 2012 Rise Set
Actual Time 8:24 AM EST 5:03 PM EST
Civil Twilight 7:50 AM EST 5:38 PM EST
Nautical Twilight 7:12 AM EST 6:16 PM EST
Astronomical Twilight 6:35 AM EST 6:52 PM EST
Moon 2:00 PM EST (12/23) 3:59 AM EST (12/23)
Length of Visible Light 9h 48m
Length of Day
8h 38m
Waxing Gibbous, 81% of the Moon is Illuminated
Dec 23
Waxing Gibbous
Dec 28
Full
Jan 4
Last Quarter
Jan 11
New
Jan 18
First Quarter

Hourly Weather History & Observations

Time (EST) Temp. Windchill Dew Point Humidity Pressure Visibility Wind Dir Wind Speed Gust Speed Precip Events Conditions
12:14 AM 17.6 °F 8.2 °F 14.0 °F 86% 29.86 in 10.0 mi West 6.9 mph - N/A   Clear
12:35 AM 19.4 °F 10.4 °F 15.8 °F 86% 29.86 in 10.0 mi WNW 6.9 mph - N/A   Mostly Cloudy
12:55 AM 21.2 °F 14.9 °F 17.6 °F 86% 29.85 in 10.0 mi West 4.6 mph - N/A   Overcast
1:14 AM 21.2 °F - 17.6 °F 86% 29.85 in 10.0 mi Calm Calm - N/A   Overcast
1:35 AM 23.0 °F - 17.6 °F 80% 29.84 in 10.0 mi Calm Calm - N/A   Overcast
1:54 AM 23.0 °F 17.0 °F 17.6 °F 80% 29.85 in 10.0 mi West 4.6 mph - N/A   Overcast
2:15 AM 24.8 °F 16.1 °F 19.4 °F 80% 29.85 in 10.0 mi WNW 8.1 mph - N/A   Overcast
2:35 AM 24.8 °F 14.6 °F 19.4 °F 80% 29.85 in 10.0 mi WNW 10.4 mph - N/A   Overcast
2:54 AM 24.8 °F 16.1 °F 19.4 °F 80% 29.86 in 10.0 mi WNW 8.1 mph - N/A   Overcast
3:15 AM 24.8 °F 16.1 °F 19.4 °F 80% 29.86 in 10.0 mi WNW 8.1 mph - N/A   Overcast
3:35 AM 24.8 °F 15.3 °F 21.2 °F 86% 29.86 in 10.0 mi WNW 9.2 mph - N/A   Overcast
3:54 AM 24.8 °F 14.6 °F 21.2 °F 86% 29.86 in 10.0 mi WNW 10.4 mph - N/A   Overcast
4:15 AM 26.6 °F 15.7 °F 21.2 °F 80% 29.87 in 10.0 mi NW 12.7 mph - N/A   Overcast
4:34 AM 26.6 °F 16.8 °F 21.2 °F 80% 29.87 in 10.0 mi NW 10.4 mph - N/A   Overcast
4:55 AM 26.6 °F 17.5 °F 21.2 °F 80% 29.88 in 10.0 mi NW 9.2 mph - N/A   Overcast
5:15 AM 26.6 °F 15.7 °F 21.2 °F 80% 29.88 in 10.0 mi NW 12.7 mph 16.1 mph N/A   Overcast
5:34 AM 26.6 °F 14.3 °F 19.4 °F 74% 29.88 in 10.0 mi NW 16.1 mph 21.9 mph N/A   Overcast
5:55 AM 26.6 °F 14.3 °F 19.4 °F 74% 29.89 in 10.0 mi NW 16.1 mph 21.9 mph N/A   Overcast
6:14 AM 26.6 °F 15.2 °F 19.4 °F 74% 29.91 in 10.0 mi NNW 13.8 mph 19.6 mph N/A Snow Light Snow
6:35 AM 24.8 °F 12.4 °F 19.4 °F 80% 29.92 in 10.0 mi NW 15.0 mph 25.3 mph N/A Snow Light Snow
6:55 AM 24.8 °F 12.9 °F 17.6 °F 74% 29.92 in 10.0 mi NNW 13.8 mph 25.3 mph N/A Snow Light Snow
7:14 AM 24.8 °F 14.0 °F 17.6 °F 74% 29.92 in 10.0 mi NNW 11.5 mph 19.6 mph N/A Snow Light Snow
7:35 AM 24.8 °F 12.9 °F 17.6 °F 74% 29.93 in 10.0 mi NW 13.8 mph 23.0 mph N/A Snow Light Snow
7:54 AM 23.0 °F 11.7 °F 17.6 °F 80% 29.93 in 4.0 mi NW 11.5 mph 18.4 mph N/A Snow Light Snow
8:15 AM 23.0 °F 10.1 °F 17.6 °F 80% 29.93 in 10.0 mi NW 15.0 mph 19.6 mph N/A Snow Light Snow
8:35 AM 23.0 °F 11.1 °F 17.6 °F 80% 29.94 in 5.0 mi NW 12.7 mph 18.4 mph N/A Snow Light Snow
8:54 AM 21.2 °F 9.5 °F 17.6 °F 86% 29.94 in 4.0 mi NW 11.5 mph - N/A Snow Light Snow
9:15 AM 21.2 °F 10.1 °F 17.6 °F 86% 29.95 in 5.0 mi NW 10.4 mph 19.6 mph N/A Snow Light Snow
9:35 AM 21.2 °F 11.7 °F 17.6 °F 86% 29.95 in 10.0 mi NW 8.1 mph - N/A Snow Light Snow
9:54 AM 21.2 °F 13.6 °F 17.6 °F 86% 29.95 in 10.0 mi NW 5.8 mph - N/A Snow Light Snow
10:15 AM 23.0 °F 12.4 °F 17.6 °F 80% 29.95 in 10.0 mi NW 10.4 mph - N/A Snow Light Snow
10:34 AM 23.0 °F 13.1 °F 17.6 °F 80% 29.96 in 7.0 mi WNW 9.2 mph - N/A Snow Light Snow
10:55 AM 23.0 °F 12.4 °F 17.6 °F 80% 29.96 in 2.0 mi West 10.4 mph - N/A Snow Light Snow
11:14 AM 21.2 °F 10.9 °F 17.6 °F 86% 29.96 in 2.0 mi West 9.2 mph - N/A Snow Light Snow
11:35 AM 21.2 °F 9.5 °F 17.6 °F 86% 29.96 in 1.8 mi West 11.5 mph 16.1 mph N/A Snow Light Snow
12:15 PM 21.2 °F 9.5 °F 17.6 °F 86% 29.96 in 2.0 mi West 11.5 mph - N/A Snow Light Snow
12:35 PM 21.2 °F 11.7 °F 17.6 °F 86% 29.96 in 2.0 mi WNW 8.1 mph - N/A Snow Light Snow
12:54 PM 21.2 °F 10.9 °F 17.6 °F 86% 29.95 in 2.5 mi WNW 9.2 mph - N/A Snow Light Snow
1:15 PM 23.0 °F 11.1 °F 17.6 °F 80% 29.95 in 10.0 mi WNW 12.7 mph - N/A Snow Light Snow
1:35 PM 23.0 °F 11.7 °F 17.6 °F 80% 29.96 in 3.0 mi WNW 11.5 mph - N/A Snow Light Snow
1:54 PM 23.0 °F 12.4 °F 17.6 °F 80% 29.95 in 5.0 mi NW 10.4 mph 18.4 mph N/A Snow Light Snow
2:15 PM 21.2 °F 9.5 °F 17.6 °F 86% 29.95 in 7.0 mi West 11.5 mph - N/A Snow Light Snow
2:34 PM 21.2 °F 10.1 °F 17.6 °F 86% 29.96 in 7.0 mi WNW 10.4 mph 16.1 mph N/A Snow Light Snow
2:55 PM 21.2 °F 10.1 °F 17.6 °F 86% 29.96 in 7.0 mi West 10.4 mph - N/A Snow Light Snow
3:14 PM 21.2 °F 10.1 °F 15.8 °F 80% 29.96 in 7.0 mi West 10.4 mph - N/A Snow Light Snow
3:35 PM 21.2 °F 9.5 °F 15.8 °F 80% 29.97 in 4.0 mi WNW 11.5 mph - N/A Snow Light Snow
3:55 PM 21.2 °F 10.9 °F 15.8 °F 80% 29.98 in 5.0 mi WNW 9.2 mph - N/A Snow Light Snow
4:14 PM 21.2 °F 10.9 °F 15.8 °F 80% 29.98 in 7.0 mi West 9.2 mph 17.3 mph N/A Snow Light Snow
4:35 PM 21.2 °F 10.9 °F 15.8 °F 80% 29.98 in 10.0 mi West 9.2 mph - N/A Snow Light Snow
4:55 PM 21.2 °F 10.9 °F 15.8 °F 80% 29.98 in 10.0 mi WNW 9.2 mph - N/A Snow Light Snow
5:14 PM 21.2 °F 10.9 °F 15.8 °F 80% 29.99 in 10.0 mi WNW 9.2 mph - N/A Snow Light Snow
5:35 PM 21.2 °F 12.6 °F 15.8 °F 80% 29.99 in 10.0 mi West 6.9 mph - N/A Snow Light Snow
5:54 PM 21.2 °F 16.4 °F 15.8 °F 80% 30.00 in 10.0 mi West 3.5 mph - N/A Snow Light Snow
6:15 PM 21.2 °F 16.4 °F 15.8 °F 80% 30.00 in 10.0 mi West 3.5 mph - N/A Snow Light Snow
6:35 PM 21.2 °F 13.6 °F 15.8 °F 80% 30.01 in 10.0 mi WSW 5.8 mph - N/A Snow Light Snow
6:54 PM 21.2 °F 14.9 °F 15.8 °F 80% 30.01 in 10.0 mi West 4.6 mph - N/A Snow Light Snow
7:15 PM 21.2 °F 14.9 °F 15.8 °F 80% 30.01 in 10.0 mi West 4.6 mph - N/A Snow Light Snow
7:35 PM 21.2 °F 11.7 °F 15.8 °F 80% 30.01 in 10.0 mi West 8.1 mph - N/A Snow Light Snow
7:54 PM 21.2 °F 11.7 °F 15.8 °F 80% 30.02 in 10.0 mi WSW 8.1 mph - N/A Snow Light Snow
8:15 PM 21.2 °F 13.6 °F 15.8 °F 80% 30.02 in 10.0 mi WSW 5.8 mph - N/A Snow Light Snow
8:34 PM 21.2 °F 10.9 °F 15.8 °F 80% 30.02 in 10.0 mi West 9.2 mph - N/A Snow Light Snow
8:55 PM 21.2 °F 12.6 °F 15.8 °F 80% 30.02 in 10.0 mi West 6.9 mph - N/A Snow Light Snow
9:15 PM 21.2 °F 13.6 °F 15.8 °F 80% 30.02 in 10.0 mi West 5.8 mph - N/A   Overcast
9:55 PM 21.2 °F 12.6 °F 15.8 °F 80% 30.02 in 10.0 mi WSW 6.9 mph - N/A   Overcast
10:15 PM 21.2 °F 13.6 °F 15.8 °F 80% 30.01 in 10.0 mi West 5.8 mph - N/A   Overcast
10:34 PM 21.2 °F 11.7 °F 15.8 °F 80% 30.00 in 10.0 mi WNW 8.1 mph - N/A   Overcast
10:55 PM 21.2 °F 12.6 °F 15.8 °F 80% 30.00 in 10.0 mi West 6.9 mph - N/A   Overcast
11:14 PM 19.4 °F 9.5 °F 15.8 °F 86% 30.00 in 10.0 mi WNW 8.1 mph - N/A   Overcast
11:35 PM 19.4 °F 9.5 °F 14.0 °F 80% 30.00 in 10.0 mi WNW 8.1 mph - N/A   Overcast
11:54 PM 19.4 °F 10.4 °F 14.0 °F 80% 30.00 in 10.0 mi WNW 6.9 mph - N/A   Overcast